Daviess Cnty AP, Washington,, IN

3:47 AM EST on December 11, 2019 (GMT -0500)
Daviess County

Weather History for KDCY - October, 2019

Change the Weather History Date:

Sunday, October 27, 2019

  Actual Average (KLWV) Record (KLWV)
Temperature  
Mean Temperature 54 °F -  
Max Temperature 62 °F 62 °F 84 °F (2014)
Min Temperature 45 °F 42 °F 28 °F (2001)
Degree Days  
Heating Degree Days 11    
Growing Degree Days 4 (Base 50)    
Moisture  
Dew Point 47 °F    
Average Humidity 82    
Maximum Humidity 99    
Minimum Humidity 52    
Precipitation  
Precipitation 0.00 in - - ()
Sea Level Pressure  
Sea Level Pressure 29.95 in    
Wind  
Wind Speed 11 mph (WSW)    
Max Wind Speed 22 mph    
Max Gust Speed 28 mph    
Visibility 10 miles    
Events      
Averages and records for this station are not official NWS values.
T = Trace of Precipitation, MM = Missing Value Source: NWS Daily Summary

Daily Weather History Graph

Daily Weather History Graph

Search for Another Location

Airport or City:

Astronomy

Oct. 27, 2019 Rise Set
Actual Time 8:09 AM EDT 6:54 PM EDT
Civil Twilight 7:42 AM EDT 7:21 PM EDT
Nautical Twilight 7:11 AM EDT 7:52 PM EDT
Astronomical Twilight 6:40 AM EDT 8:23 PM EDT
Moon 7:19 AM EDT (10/27) 7:02 PM EDT (10/27)
Length of Visible Light 11h 39m
Length of Day
10h 44m
Waning Crescent, 0% of the Moon is Illuminated
Oct 27
Waning Crescent
Oct 27
New
Nov 4
First Quarter
Nov 12
Full
Nov 19
Last Quarter

Hourly Weather History & Observations

Time (EDT) Temp. Dew Point Humidity Pressure Visibility Wind Dir Wind Speed Gust Speed Precip Events Conditions
12:15 AM 52.3 °F 48.4 °F 86% 29.69 in 10.0 mi WSW 21.9 mph 27.6 mph N/A   Overcast
12:35 AM 52.0 °F 49.1 °F 90% 29.70 in 10.0 mi WSW 17.3 mph 23.0 mph N/A   Overcast
12:55 AM 51.8 °F 49.3 °F 91% 29.71 in 10.0 mi WSW 15.0 mph 21.9 mph N/A   Overcast
1:15 AM 51.8 °F 48.2 °F 88% 29.73 in 10.0 mi WSW 19.6 mph 27.6 mph N/A   Overcast
1:35 AM 51.1 °F 48.2 °F 90% 29.74 in 10.0 mi WSW 19.6 mph 26.5 mph N/A   Overcast
1:55 AM 50.9 °F 48.4 °F 91% 29.75 in 10.0 mi WSW 18.4 mph 24.2 mph N/A   Overcast
2:15 AM 50.9 °F 48.2 °F 90% 29.76 in 10.0 mi WSW 19.6 mph 24.2 mph N/A   Overcast
2:35 AM 50.9 °F 48.4 °F 91% 29.77 in 10.0 mi WSW 21.9 mph 27.6 mph N/A   Overcast
2:55 AM 50.9 °F 48.7 °F 92% 29.78 in 10.0 mi WSW 15.0 mph 24.2 mph N/A   Overcast
3:15 AM 50.9 °F 49.1 °F 94% 29.79 in 10.0 mi WSW 12.7 mph - N/A   Overcast
3:30 AM 50.9 °F 49.1 °F 94% 29.80 in 10.0 mi WSW 10.4 mph - N/A   Overcast
3:55 AM 50.9 °F 49.3 °F 94% 29.81 in 10.0 mi WSW 11.5 mph - N/A   Overcast
4:15 AM 51.1 °F 49.5 °F 94% 29.82 in 10.0 mi WSW 12.7 mph - N/A   Overcast
4:35 AM 50.9 °F 49.3 °F 94% 29.84 in 10.0 mi WSW 10.4 mph - N/A   Overcast
4:55 AM 51.1 °F 49.1 °F 93% 29.85 in 10.0 mi WSW 11.5 mph - N/A   Overcast
5:15 AM 50.9 °F 49.1 °F 94% 29.85 in 10.0 mi WSW 11.5 mph - N/A   Overcast
5:35 AM 50.9 °F 49.1 °F 94% 29.86 in 10.0 mi WSW 10.4 mph - N/A   Overcast
5:55 AM 50.9 °F 48.9 °F 93% 29.87 in 10.0 mi WSW 11.5 mph - N/A   Overcast
6:15 AM 50.9 °F 48.6 °F 92% 29.89 in 10.0 mi WSW 10.4 mph - N/A   Overcast
6:35 AM 50.5 °F 48.4 °F 92% 29.89 in 10.0 mi West 9.2 mph 16.1 mph N/A   Overcast
6:55 AM 50.4 °F 48.6 °F 94% 29.90 in 10.0 mi WSW 10.4 mph - N/A   Overcast
7:15 AM 50.4 °F 48.2 °F 92% 29.92 in 10.0 mi West 10.4 mph - N/A   Overcast
7:35 AM 50.2 °F 48.2 °F 93% 29.92 in 10.0 mi West 9.2 mph - N/A   Overcast
7:55 AM 50.0 °F 48.0 °F 93% 29.93 in 10.0 mi West 8.1 mph - N/A   Overcast
8:15 AM 50.0 °F 47.7 °F 92% 29.95 in 10.0 mi West 8.1 mph - N/A   Overcast
8:35 AM 50.0 °F 47.5 °F 91% 29.95 in 10.0 mi West 10.4 mph - N/A   Overcast
8:55 AM 49.6 °F 46.2 °F 88% 29.96 in 10.0 mi West 11.5 mph - N/A   Overcast
9:15 AM 49.8 °F 45.9 °F 86% 29.97 in 10.0 mi West 8.1 mph - N/A   Overcast
9:35 AM 50.2 °F 46.8 °F 88% 29.98 in 10.0 mi West 9.2 mph - N/A   Overcast
9:55 AM 50.4 °F 46.9 °F 88% 29.99 in 10.0 mi West 8.1 mph - N/A   Overcast
10:15 AM 50.9 °F 47.3 °F 87% 30.00 in 10.0 mi WSW 6.9 mph - N/A   Overcast
10:35 AM 50.9 °F 46.2 °F 84% 30.01 in 10.0 mi West 6.9 mph - N/A   Overcast
10:55 AM 51.1 °F 46.4 °F 84% 30.01 in 10.0 mi West 6.9 mph - N/A   Mostly Cloudy
11:15 AM 53.2 °F 47.7 °F 81% 30.01 in 10.0 mi West 4.6 mph - N/A   Overcast
11:35 AM 53.1 °F 45.5 °F 75% 30.02 in 10.0 mi West 5.8 mph - N/A   Mostly Cloudy
11:55 AM 53.6 °F 45.3 °F 74% 30.03 in 10.0 mi SW 3.5 mph - N/A   Scattered Clouds
12:15 PM 54.9 °F 45.9 °F 72% 30.03 in 10.0 mi West 5.8 mph - N/A   Mostly Cloudy
12:35 PM 55.4 °F 45.5 °F 69% 30.03 in 10.0 mi WSW 5.8 mph - N/A   Scattered Clouds
12:55 PM 56.3 °F 45.7 °F 68% 30.03 in 10.0 mi WSW 3.5 mph - N/A   Clear
1:15 PM 56.8 °F 45.9 °F 67% 30.03 in 10.0 mi WSW 3.5 mph - N/A   Clear
1:35 PM 57.9 °F 46.6 °F 66% 30.02 in 10.0 mi Calm Calm - N/A   Scattered Clouds
1:55 PM 58.1 °F 45.9 °F 64% 30.02 in 10.0 mi SW 3.5 mph - N/A   Clear
2:15 PM 59.0 °F 45.3 °F 60% 30.01 in 10.0 mi Calm Calm - N/A   Clear
2:35 PM 59.9 °F 45.1 °F 58% 30.01 in 10.0 mi WNW 3.5 mph - N/A   Clear
2:55 PM 60.3 °F 45.0 °F 57% 30.01 in 10.0 mi Calm Calm - N/A   Clear
3:15 PM 61.2 °F 45.0 °F 55% 30.01 in 10.0 mi SSW 3.5 mph - N/A   Clear
3:35 PM 61.2 °F 45.3 °F 56% 30.01 in 10.0 mi Calm Calm - N/A   Clear
3:55 PM 62.1 °F 45.7 °F 55% 30.01 in 10.0 mi SSW 3.5 mph - N/A   Clear
4:15 PM 62.6 °F 45.9 °F 54% 30.01 in 10.0 mi West 4.6 mph - N/A   Clear
4:35 PM 62.6 °F 44.8 °F 52% 30.02 in 10.0 mi WSW 3.5 mph - N/A   Clear
4:55 PM 62.6 °F 45.3 °F 53% 30.02 in 10.0 mi WSW 4.6 mph - N/A   Clear
5:15 PM 62.6 °F 45.1 °F 53% 30.03 in 10.0 mi SSW 3.5 mph - N/A   Clear
5:35 PM 62.6 °F 45.0 °F 52% 30.02 in 10.0 mi South 6.9 mph - N/A   Clear
5:55 PM 62.1 °F 44.8 °F 53% 30.02 in 10.0 mi WSW 5.8 mph - N/A   Clear
6:15 PM 61.3 °F 46.0 °F 57% 30.02 in 10.0 mi Calm Calm - N/A   Clear
6:35 PM 60.1 °F 48.0 °F 64% 30.01 in 10.0 mi Calm Calm - N/A   Clear
6:55 PM 56.1 °F 50.9 °F 83% 30.02 in 10.0 mi Calm Calm - N/A   Clear
7:15 PM 53.4 °F 50.5 °F 90% 30.02 in 10.0 mi Calm Calm - N/A   Clear
7:35 PM 52.2 °F 49.3 °F 90% 30.02 in 10.0 mi Calm Calm - N/A   Clear
7:55 PM 51.4 °F 48.0 °F 88% 30.03 in 10.0 mi Calm Calm - N/A   Clear
8:15 PM 50.2 °F 46.8 °F 88% 30.03 in 10.0 mi Calm Calm - N/A   Clear
8:35 PM 50.5 °F 47.5 °F 89% 30.03 in 10.0 mi Calm Calm - N/A   Clear
8:55 PM 50.5 °F 46.6 °F 86% 30.04 in 10.0 mi Calm Calm - N/A   Clear
9:15 PM 49.1 °F 46.6 °F 91% 30.04 in 10.0 mi Calm Calm - N/A   Clear
9:35 PM 47.8 °F 47.7 °F 99% 30.04 in 10.0 mi Calm Calm - N/A   Clear
9:55 PM 47.3 °F 47.1 °F 99% 30.05 in 10.0 mi Calm Calm - N/A   Clear
10:15 PM 46.4 °F 46.0 °F 99% 30.05 in 10.0 mi Calm Calm - N/A   Clear
10:35 PM 46.8 °F 46.6 °F 99% 30.05 in 10.0 mi Calm Calm - N/A   Clear
10:55 PM 46.8 °F 46.6 °F 99% 30.06 in 10.0 mi Calm Calm - N/A   Clear
11:15 PM 46.0 °F 45.9 °F 99% 30.05 in 10.0 mi Calm Calm - N/A   Clear
11:35 PM 46.0 °F 45.9 °F 99% 30.05 in 10.0 mi Calm Calm - N/A   Clear
11:55 PM 45.7 °F 45.3 °F 99% 30.05 in 10.0 mi Calm Calm - N/A   Clear